Stations météo

Publicité
Cannes, France (7684): Température de l'air & dewpoint: 11.11.2018 18:00:00 - 17.11.2018 18:00:00 (CET)Cannes, France (7684): Température de l'air 5cm: 11.11.2018 18:00:00 - 17.11.2018 18:00:00 (CET)Cannes, France (7684): Vitesse du vent & gusts: 11.11.2018 18:00:00 - 17.11.2018 18:00:00 (CET)Cannes, France (7684): Direction du vent: 11.11.2018 18:00:00 - 17.11.2018 18:00:00 (CET)Cannes, France (7684): reduced air pressure: 11.11.2018 18:00:00 - 17.11.2018 18:00:00 (CET)Cannes, France (7684): visibility: 11.11.2018 18:00:00 - 17.11.2018 18:00:00 (CET)Cannes, France (7684): Quantités de précipitations: 11.11.2018 18:00:00 - 17.11.2018 18:00:00 (CET)
Date & Time tt [°C] td [°C] tt 5cm [°C] ff [km/h] ff [knt] fx [km/h] fx [knt] dd ppp [hPa] vv [km] rr [mm]
17.11.2018 18:00:00 13,2 -2,7 10,4 8 5 33 18 NNE 1019,2 60 0,0
17.11.2018 17:00:00 14,0 -0,9 11,0 9 5 31 17 E 1018,8 60 0,0
17.11.2018 16:00:00 15,4 -0,8 13,1 12 6 37 20 ESE 1018,3 48 0,0
17.11.2018 15:00:00 15,8 -1,8 14,8 16 9 42 23 E 1018,4 60 0,0
17.11.2018 14:00:00 15,6 0,9 13,7 19 10 53 28 E 1018,9 20 0,0
17.11.2018 13:00:00 15,6 -1,1 13,9 17 9 35 19 E 1019,6 32 0,0
17.11.2018 12:00:00 15,1 0,1 13,2 13 7 38 21 E 1020,0 60 0,0
17.11.2018 11:00:00 14,5 1,0 12,6 13 7 31 17 E 1020,6 60 0,0
17.11.2018 10:00:00 13,1 3,5 10,8 6 3 10 6 N 1021,0 60 0,0
17.11.2018 09:00:00 12,0 3,2 10,2 5 3 14 7 N 1021,2 59 0,0
17.11.2018 08:00:00 11,4 4,4 9,1 9 5 16 9 N 1021,0 59 0,0
17.11.2018 07:00:00 10,6 6,0 9,0 6 3 9 5 N 1020,8 19 0,0
17.11.2018 06:00:00 11,6 5,5 10,1 6 3 21 11 N 1020,9 49 0,0
17.11.2018 05:00:00 13,3 3,4 11,2 5 3 27 15 E 1021,4 56 0,0
17.11.2018 04:00:00 13,7 4,0 11,4 5 3 35 19 E 1021,7 56 0,0
17.11.2018 03:00:00 13,7 4,3 11,9 9 5 29 16 E 1022,0 19 0,0
17.11.2018 02:00:00 14,2 4,2 12,7 11 6 33 18 E 1022,1 43 0,0
17.11.2018 01:00:00 14,6 4,6 13,4 16 9 40 22 E 1022,4 42 0,0
17.11.2018 00:00:00 15,3 6,0 13,5 16 9 39 21 E 1022,2 45 0,0
16.11.2018 23:00:00 15,4 5,6 13,8 9 5 41 22 ESE 1022,2 60 0,0
16.11.2018 22:00:00 15,7 5,3 14,0 15 8 37 20 E 1022,5 60 0,0
16.11.2018 21:00:00 16,0 6,1 14,2 15 8 37 20 E 1022,4 51 0,0
16.11.2018 20:00:00 16,2 6,0 14,2 14 8 35 19 E 1022,3 54 0,0
16.11.2018 19:00:00 16,4 7,3 14,2 7 4 22 12 E 1022,3 37 0,0
16.11.2018 18:00:00 16,6 8,5 14,2 8 4 22 12 ENE 1022,1 31 0,0
16.11.2018 17:00:00 16,9 8,8 14,0 9 5 19 10 SE 1021,3 18 0,0
16.11.2018 16:00:00 16,4 9,3 14,6 10 5 16 9 S 1021,6 20 0,0
16.11.2018 15:00:00 17,3 9,5 16,4 8 5 20 11 S 1021,8 34 0,0
16.11.2018 14:00:00 18,4 9,2 16,9 11 6 18 10 S 1022,2 20 0,0
16.11.2018 13:00:00 18,1 9,7 17,0 8 4 17 9 S 1022,5 20 0,0
16.11.2018 12:00:00 18,7 9,7 18,5 5 3 13 7 SSW 1022,8 13 0,0
16.11.2018 11:00:00 18,0 10,4 16,9 5 3 9 5 SSW 1023,2 18 0,0
16.11.2018 10:00:00 15,1 11,5 12,6 4 2 10 6 N 1023,3 17 0,0
16.11.2018 09:00:00 12,6 10,5 11,0 5 3 10 6 N 1023,2 9 0,0
16.11.2018 08:00:00 11,4 9,6 10,1 6 3 11 6 NNE 1023,0 15 0,0
16.11.2018 07:00:00 10,7 9,1 9,8 6 4 11 6 N 1022,5 12 0,0
16.11.2018 06:00:00 10,3 8,7 9,5 6 3 11 6 N 1022,2 13 0,0
16.11.2018 05:00:00 10,2 8,6 9,3 6 3 11 6 N 1022,2 16 0,0
16.11.2018 04:00:00 10,3 8,7 9,3 8 4 12 6 N 1022,2 19 0,0
16.11.2018 03:00:00 10,2 8,6 9,3 6 3 14 7 N 1022,3 17 0,0
16.11.2018 02:00:00 10,5 8,9 9,4 6 4 14 8 N 1022,5 16 0,0
16.11.2018 01:00:00 10,5 9,3 9,8 7 4 13 7 N 1022,6 14 0,0
16.11.2018 00:00:00 10,8 9,7 9,9 7 4 10 6 N 1022,6 11 0,0
15.11.2018 23:00:00 10,9 9,8 10,1 5 3 12 6 N 1022,2 9 0,0
15.11.2018 22:00:00 11,3 10,4 10,4 5 3 10 5 N 1022,3 8 0,0
15.11.2018 21:00:00 11,4 10,3 10,6 6 3 11 6 N 1022,0 7 0,0
15.11.2018 20:00:00 12,1 10,8 11,1 4 2 12 7 N 1021,9 7 0,0
15.11.2018 19:00:00 13,0 11,4 11,9 7 4 14 8 N 1022,3 7 0,0
15.11.2018 18:00:00 14,1 12,0 12,9 6 3 11 6 NNE 1022,2 8 0,0
15.11.2018 17:00:00 16,4 11,5 13,9 0 0 10 5 N 1022,2 14 0,0
15.11.2018 16:00:00 17,4 11,4 16,0 6 3 15 8 SE 1022,6 19 0,0
15.11.2018 15:00:00 18,3 11,4 17,5 10 5 19 10 SE 1022,9 20 0,0
15.11.2018 14:00:00 19,1 10,4 17,1 9 5 20 11 SE 1023,3 20 0,0
15.11.2018 13:00:00 18,3 9,6 16,8 8 4 18 10 ESE 1023,9 20 0,0
15.11.2018 12:00:00 17,8 11,1 16,6 5 3 16 9 ENE 1024,4 44 0,0
15.11.2018 11:00:00 16,1 11,3 14,5 4 2 13 7 N 1024,7 18 0,0
15.11.2018 10:00:00 14,6 10,4 12,3 8 5 16 8 N 1024,5 20 0,0
15.11.2018 09:00:00 12,8 9,6 9,8 6 3 14 7 NNE 1024,4 19 0,0
15.11.2018 08:00:00 10,5 8,8 9,0 8 4 15 8 N 1024,1 18 0,0
15.11.2018 07:00:00 9,9 8,3 9,1 7 4 15 8 N 1023,8 19 0,0
15.11.2018 06:00:00 10,5 8,9 9,7 9 5 19 11 N 1023,9 19 0,0
15.11.2018 05:00:00 10,5 8,9 9,9 10 5 17 9 N 1024,0 17 0,0
15.11.2018 04:00:00 10,6 9,2 9,8 6 4 13 7 N 1024,2 19 0,0
15.11.2018 03:00:00 10,9 9,5 10,1 8 4 14 7 N 1024,5 17 0,0
15.11.2018 02:00:00 11,0 9,6 10,3 9 5 15 8 N 1024,8 16 0,0
15.11.2018 01:00:00 11,4 10,0 10,7 11 6 18 10 N 1025,0 14 0,2
15.11.2018 00:00:00 11,6 10,2 11,0 11 6 18 10 N 1025,1 11 0,0
14.11.2018 23:00:00 12,1 10,7 11,4 9 5 15 8 N 1025,5 10 0,0
14.11.2018 22:00:00 12,5 11,2 11,9 8 5 14 8 N 1025,7 9 0,0
14.11.2018 21:00:00 12,9 11,6 12,2 7 4 15 8 N 1025,7 8 0,0
14.11.2018 20:00:00 13,7 12,3 13,0 8 5 14 7 N 1025,8 9 0,0
14.11.2018 19:00:00 14,3 12,8 13,3 4 2 8 5 N 1025,7 8 0,0
14.11.2018 18:00:00 15,5 13,0 14,1 4 2 9 5 N 1025,5 8 0,0
14.11.2018 17:00:00 17,3 13,0 15,4 4 2 7 4 N 1025,5 23 0,0
14.11.2018 16:00:00 19,1 13,7 17,4 5 3 14 8 S 1025,9 52 0,0
14.11.2018 15:00:00 19,1 12,8 18,1 10 6 17 9 SE 1026,2 40 0,0
14.11.2018 14:00:00 20,0 13,5 20,3 8 4 13 7 S 1026,4 45 0,0
14.11.2018 13:00:00 19,8 13,5 20,3 7 4 13 7 S 1027,0 19 0,0
14.11.2018 12:00:00 19,9 13,4 20,4 7 4 11 6 S 1027,5 17 0,0
14.11.2018 11:00:00 20,2 13,4 17,7 0 0 10 5 N 1028,1 29 0,0
14.11.2018 10:00:00 16,5 12,8 13,9 5 3 12 6 N 1028,1 19 0,0
14.11.2018 09:00:00 13,9 11,6 12,5 6 3 10 5 N 1028,1 27 0,0
14.11.2018 08:00:00 13,0 10,5 12,2 6 3 16 9 N 1027,8 30 0,0
14.11.2018 07:00:00 12,6 10,7 11,7 9 5 17 9 N 1027,3 28 0,0
14.11.2018 06:00:00 12,2 10,3 11,7 8 4 14 8 N 1027,3 27 0,0
14.11.2018 05:00:00 12,6 10,8 11,8 5 3 16 9 N 1027,2 26 0,0
14.11.2018 04:00:00 12,4 10,8 11,6 7 4 13 7 N 1027,1 20 0,0
14.11.2018 03:00:00 12,3 10,9 11,6 4 2 15 8 N 1027,3 19 0,0
14.11.2018 02:00:00 12,6 11,2 12,1 9 5 15 8 N 1027,5 18 0,0
14.11.2018 01:00:00 12,7 11,6 11,7 7 4 12 7 N 1027,7 14 0,0
14.11.2018 00:00:00 12,8 11,7 12,0 6 3 10 6 N 1028,0 13 0,0
13.11.2018 23:00:00 13,3 12,4 12,4 7 4 11 6 NNE 1028,0 11 0,0
13.11.2018 22:00:00 13,4 12,5 12,7 6 3 11 6 N 1027,9 9 0,0
13.11.2018 21:00:00 13,9 12,9 13,3 7 4 13 7 NNE 1027,8 7 0,0
13.11.2018 20:00:00 14,3 13,2 13,5 5 3 10 5 N 1027,8 9 0,0
13.11.2018 19:00:00 15,3 13,8 14,2 3 2 9 5 N 1027,4 13 0,0
13.11.2018 18:00:00 16,1 14,3 15,0 6 3 10 6 N 1027,2 12 0,0
13.11.2018 17:00:00 18,2 14,3 16,4 4 2 16 9 ESE 1026,9 20 0,0
13.11.2018 16:00:00 19,2 14,7 18,4 7 4 15 8 SE 1026,6 55 0,0
13.11.2018 15:00:00 19,5 14,3 19,1 6 4 15 8 SE 1026,6 55 0,0
13.11.2018 14:00:00 19,6 13,8 18,9 6 3 14 8 SE 1027,0 54 0,0
13.11.2018 13:00:00 19,7 12,9 19,3 7 4 12 6 SSE 1027,4 47 0,0
13.11.2018 12:00:00 19,6 12,6 19,4 7 4 11 6 SSE 1027,6 20 0,0
13.11.2018 11:00:00 19,5 13,4 16,8 0 0 17 9 N 1028,0 49 0,0
13.11.2018 10:00:00 17,0 12,7 15,3 9 5 18 10 NNE 1027,8 56 0,0
13.11.2018 09:00:00 15,1 12,6 13,2 6 3 13 7 N 1028,0 53 0,0
13.11.2018 08:00:00 13,7 12,1 13,0 6 4 14 7 N 1027,4 36 0,0
13.11.2018 07:00:00 14,2 12,1 13,4 7 4 13 7 NNE 1026,8 46 0,0
13.11.2018 06:00:00 14,5 12,0 13,8 5 3 14 8 NNE 1026,6 54 0,0
13.11.2018 05:00:00 15,0 11,8 13,8 6 3 14 7 NNE 1026,6 60 0,0
13.11.2018 04:00:00 14,6 11,9 13,5 9 5 15 8 NNE 1026,5 57 0,0
13.11.2018 03:00:00 14,3 12,0 13,3 7 4 13 7 N 1026,6 37 0,0
13.11.2018 02:00:00 13,7 12,3 12,6 7 4 11 6 N 1026,5 18 0,0
13.11.2018 01:00:00 13,8 12,0 12,4 3 1 11 6 NE 1026,0 20 0,0
13.11.2018 00:00:00 14,1 12,1 13,3 6 3 16 9 N 1026,2 23 0,0
12.11.2018 23:00:00 14,0 12,6 13,6 7 4 15 8 N 1026,4 18 0,0
12.11.2018 22:00:00 13,8 12,5 13,6 6 3 11 6 N 1026,5 12 0,0
12.11.2018 21:00:00 14,4 13,3 13,7 7 4 11 6 NNE 1026,3 8 0,0
12.11.2018 20:00:00 14,8 13,7 14,1 7 4 11 6 NNE 1025,9 7 0,0
12.11.2018 19:00:00 15,4 14,1 14,3 7 4 10 5 N 1025,8 10 0,0
12.11.2018 18:00:00 16,4 14,6 14,6 4 2 7 4 N 1025,3 20 0,0
12.11.2018 17:00:00 17,8 14,5 15,5 4 2 14 7 NE 1024,9 46 0,0
12.11.2018 16:00:00 18,7 14,6 17,6 5 3 17 9 ESE 1024,9 59 0,0
12.11.2018 15:00:00 19,1 14,4 18,2 9 5 20 11 E 1024,6 58 0,0
12.11.2018 14:00:00 19,2 14,9 18,4 8 4 18 10 E 1024,7 57 0,0
12.11.2018 13:00:00 19,1 14,6 18,5 7 4 18 10 ENE 1025,0 57 0,0
12.11.2018 12:00:00 18,6 13,9 17,3 3 2 7 4 NNE 1025,4 54 0,0
12.11.2018 11:00:00 17,8 13,7 16,0 4 2 7 4 N 1025,5 57 0,0
12.11.2018 10:00:00 16,7 13,2 15,3 3 2 7 4 NW 1025,1 60 0,0
12.11.2018 09:00:00 15,9 13,4 14,7 5 3 11 6 N 1024,8 54 0,0
12.11.2018 08:00:00 15,3 13,3 14,6 3 2 10 5 N 1024,3 54 0,0
12.11.2018 07:00:00 15,4 13,2 14,5 4 2 15 8 N 1023,6 60 0,0
12.11.2018 06:00:00 15,1 13,5 14,6 5 3 16 9 N 1023,5 21 0,2
12.11.2018 05:00:00 15,0 13,7 14,6 4 2 13 7 N 1023,3 7 1,8
12.11.2018 04:00:00 15,2 13,9 14,9 6 3 11 6 NNE 1023,1 4,7 0,4
12.11.2018 03:00:00 15,3 14,2 15,0 5 3 11 6 N 1023,4 59 2,7
12.11.2018 02:00:00 15,4 14,3 15,0 6 3 10 5 N 1023,2 4,0 2,2
12.11.2018 01:00:00 15,4 13,9 14,9 4 2 10 6 N 1023,2 6 0,2
12.11.2018 00:00:00 15,4 13,9 14,9 5 3 14 8 N 1023,0 41 0,0
11.11.2018 23:00:00 15,6 14,1 15,1 8 4 14 8 N 1022,6 54 0,0
11.11.2018 22:00:00 15,7 14,2 14,9 5 3 14 7 N 1022,8 28 1,2
11.11.2018 21:00:00 15,3 13,8 14,8 5 3 10 6 N 1022,1 6 0,2
11.11.2018 20:00:00 15,2 13,7 14,7 7 4 14 8 N 1021,7 27 0,0
11.11.2018 19:00:00 15,4 13,6 14,7 8 4 14 8 N 1021,5 57 0,0
11.11.2018 18:00:00 15,0 13,7 14,6 4 2 14 8 N 1021,1 16 1,0

tt = Température de l'air
td = dewpoint
tt 5cm = Température de l'air 5cm
ff = Vitesse du vent
fx = gusts
dd = Direction du vent
ppp = reduced air pressure
vv = visibility
rr = Quantités de précipitations

stations d'obs. à proximité